Home > Weather > Sukkur > Past weeks

Flag for Pakistan Weather for the Past 2 Weeks in Sukkur, Sindh, Pakistan

Now
79 °F

Haze.


Feels Like: 80 °F
Forecast: 77 / 101 °F
Wind: 5 mph from South

Location: Sukkur

Current Time: May 5, 2016 at 1:00:40 AM

Latest Report: May 4, 2016 at 11:00 PM


Visibility: 2 mi

Pressure: 29.74 "Hg

Humidity: 54%

Dew Point: 61 °F

Location of SukkurLocation

Historic Weather in Sukkur — Graph

°F

Sukkur Temperature Yesterday

Maximum temperature yesterday: 97 °F (at 4:00 PM)
Minimum temperature yesterday: 79 °F (at 11:00 PM)
Average temperature yesterday: 90 °F

High & Low Weather Summary for the Past Weeks

 TemperatureHumidityPressure
High115 °F (May 1, 3:00 PM)100% (May 3, 4:59 AM)29.86 "Hg (May 3, 4:59 AM)
Low66 °F (Apr 23, 7:00 AM)8% (Apr 23, 3:00 PM)29.47 "Hg (May 3, 5:30 PM)
Average93 °F34%29.64 "Hg
* Reported Apr 19 11:00 PM — May 4 11:00 PM, Sukkur, Weather by CustomWeather, © 2016

Note: Actual official high and low records may vary slightly from our data, if they occured in-between our weather recording intervals... More about our weather records

Advertising

Sukkur Weather History for the Previous 24 Hours

Scroll right to see more
 ConditionsComfort  
Time TempWeatherWind HumidityBarometerVisibility
11:00 PM
Wed, May 4
79 °FHaze.5 mph54%29.74 "Hg2 mi
10:00 PM82 °FPartly cloudy.12 mph51%29.68 "Hg2 mi
9:00 PM82 °FPartly cloudy.12 mph51%29.68 "Hg2 mi
8:00 PM88 °FPartly cloudy.No wind43%29.62 "Hg2 mi
7:00 PM90 °FPartly cloudy.No wind38%29.59 "Hg2 mi
6:00 PM93 °FBroken clouds.No wind28%29.59 "Hg2 mi
5:00 PM95 °FBroken clouds.23 mph25%29.59 "Hg2 mi
4:00 PM97 °FScattered clouds.12 mph32%29.59 "Hg3 mi
3:00 PM95 °FScattered clouds.12 mph44%29.62 "Hg2 mi
2:00 PM95 °FScattered clouds.5 mph32%29.65 "Hg2 mi
1:00 PM95 °FHaze.5 mph30%29.68 "Hg2 mi
12:00 PM95 °FHaze.5 mph30%29.68 "Hg2 mi
11:00 AM95 °FHaze.9 mph32%29.68 "Hg2 mi
10:30 AM93 °FScattered clouds.12 mph32%29.68 "Hg2 mi
10:00 AM93 °FScattered clouds.12 mph32%29.68 "Hg2 mi
9:00 AM90 °FScattered clouds.12 mph33%29.65 "Hg2 mi
8:00 AM88 °FScattered clouds.12 mph38%29.62 "Hg2 mi
7:00 AM84 °FScattered clouds.17 mph40%29.59 "Hg1 mi
6:00 AM82 °FScattered clouds.7 mph51%29.53 "Hg2 mi
1:00 AM88 °FPassing clouds.9 mph46%29.53 "Hg2 mi
Weather by CustomWeather, © 2016

See weather overviewHow to use our weather pages